STARLINK-1122, 44949

Orbit data source: Space-Track

STARLINK-1122, 44949 is a payload satellite owned by SpaceX/Seattle (US) in LEO that was launched on Tue, 07 Jan 2020 UTC via an FALCON 9 launch vehicle from the Air Force Eastern Test Range (AFETR). Payload-class satellites include a variety of spacecraft equipped with specific instruments for various scientific and technological missions. These include communications satellites like Starlink; space stations such as the ISS; scientific satellites like the Hubble; Earth observation satellites from companies like Planet Labs, Umbra, and HawkEye 360; GPS; miniature CubeSats for education and research; and military/defense satellites.

Loading next visibility...
Identifier
44949, 2020-001AM
Orbit
LEO
Country
Flag of USUS
Related business
Manufacturer
SpaceX/Seattle
Mission
Partially operational Commercial Communications
Bus & Motor
STARLINK, Unknown motor
Mass
260 kg wet, ~248 kg dry
Launch date (UTC)
2020-01-07 (6 years ago)
Launch vehicle
FALCON 9
Launch site
Air Force Eastern Test Range (AFETR)
Object type
Payload
Rocket body
Debris
Shape & HBR
Box + 1 Pan, 10.1 m
Radar Cross Section
13.562 m², Large (>1 m²)

Expand to show TLE details & history
Last TLE update: 14 hours ago

TLE from 14 hours ago
0 STARLINK-1122
1 44949U 20001AM  26125.51360309  .00064637  00000-0  11371-2 0  9997
2 44949  53.1568  54.0197 0001355 145.5943 214.5154 15.49892243348959
Epoch: 2026-05-05T12:19Z
TLE epoch observation values (Epoch: 2026-05-05T12:19:35.306Z)
Latitude
-0.00006°
Longitude
5.73518°
Altitude
418.707 km
Speed
7.661 km/s
True Right ascension
03h 36m 04s
True Declination
0° 00' 00"
Sunlit
Object was in daylight at epoch
Visualization orbit readout
Latitude
Unknown
Longitude
Unknown
Altitude
Unknown
Speed
Unknown
Apparent Right ascension
Unknown
Apparent Declination
Unknown
Sunlit
N/A
Visualization observer readout
Local Sidereal Time
10:34:35
Azimuth
Unknown
Elevation
Unknown
Doppler factor
Unknown
Orbital elements
Apogee altitude
418.221 km
Perigee altitude
416.379 km
Semi-major axis
6,795.437 km
Eccentricity
0.00014
Inclination
53.1568°
RAAN
54.0197°
Arg. of periapsis
145.5943°
True anomaly
214.5066°
Mean anomaly
214.5154°
Eccentric anomaly
214.511°
Mean motion
3.87451 °/min
Orbital period
92.91 mins
BSTAR
0.0011371
Loading maneuver chart data...
Computing Atmospheric mass density...

Documentation

Showing up to 5 results
|